Regional Weather Roundup
Issued by NWS

Home | Current Version | Previous Version | Graphics & Text | Print | Product List | Glossary On
Versions: 1 2 3 4 5 6 7 8 9 10 11 12 13 14 15 16 17 18 19 20 21 22 23 24 25 26 27 28 29 30 31 32 33 34 35 36 37 38 39 40 41 42 43 44 45 46 47 48 49 50
000
ASUS43 KLMK 221802
RWRKY
KENTUCKY REGIONAL WEATHER ROUNDUP
NATIONAL WEATHER SERVICE LOUISVILLE KY
100 PM EST THU FEB 22 2018

NOTE "FAIR" INDICATES FEW OR NO CLOUDS BELOW 12,000 FEET
WITH NO SIGNIFICANT WEATHER AND/OR OBSTRUCTIONS TO VISIBILITY.

KYZ001>023-026-027-061>063-070>075-221900-
WESTERN AND SOUTH CENTRAL KENTUCKY

CITY           SKY/WX    TMP DP  RH WIND       PRES   REMARKS
PADUCAH        CLOUDY    48  45  89 E6        30.36F
HENDERSON      CLOUDY    48  45  89 E7        30.38S
OWENSBORO      CLOUDY    51  47  86 E6        30.38R
HOPKINSVILLE   CLOUDY    53  53 100 S3        30.35F
BOWLING GREEN  CLOUDY    55  55 100 S5        30.38S FOG
GLASGOW        NOT AVBL
$$

KYZ024-025-028>034-038-045-046-053-221900-
NORTH CENTRAL KENTUCKY

CITY           SKY/WX    TMP DP  RH WIND       PRES   REMARKS
LOUISVILLE/SDF CLOUDY    47  43  86 NE9       30.40F
LOUISVILLE/LOU CLOUDY    47  45  93 E7        30.41F
FORT KNOX      CLOUDY    45  45  98 NE9       30.39S
$$

KYZ035>037-039>044-047>052-055>060-089>105-221900-
NORTHEAST KENTUCKY

CITY           SKY/WX    TMP DP  RH WIND       PRES   REMARKS
LEXINGTON      LGT RAIN  47  44  90 NE9       30.40F FOG
COVINGTON      CLOUDY    44  41  89 E13       30.42F
FRANKFORT      CLOUDY    46  42  86 NE6       30.40S
$$

KYZ054-064>069-076>088-106>120-221900-
SOUTHEAST KENTUCKY

CITY           SKY/WX    TMP DP  RH WIND       PRES   REMARKS
JACKSON        CLOUDY    56  53  90 CALM      30.38F
LONDON         CLOUDY    67  62  84 W7        30.37S
SOMERSET       NOT AVBL
MIDDLESBORO    FAIR      75  59  57 S5        30.38S
MONTICELLO     NOT AVBL
$$




USA.gov is the U.S. government's official web portal to all federal, state and local government web resources and services.